This is the latest recevied weather packets stored in our database for station/object WA0GMH-1. If no packets are shown the sender has not sent any weather packets the latest 1 day(s).
| Time | Temp. | Humidity | Pressure | Rain* | Wind** | Luminosity | Snow |
|---|---|---|---|---|---|---|---|
| 1836274679 | 16.11° C | 70% | 1016.4 hPa | 0 mm | 0 m/s | - | - |
| 1836274332 | 16.11° C | 71% | 1016.6 hPa | 0 mm | 0 m/s | - | - |
| 1836274278 | 16.11° C | 70% | 1016.3 hPa | 0 mm | 0 m/s | - | - |
| 1836273875 | 16.11° C | 70% | 1016.3 hPa | 0 mm | 0 m/s | - | - |
| 1778054264 | 2.22° C | 7% | 1015.9 hPa | 0 mm | 0 m/s | - | - |
| 1778053862 | 2.22° C | 7% | 1016 hPa | 0 mm | 0 m/s | - | - |
| 1778053460 | 2.22° C | 6% | 1016 hPa | 0 mm | 0 m/s | - | - |
| 1778053058 | 2.78° C | 6% | 1016 hPa | 0 mm | 0 m/s | - | - |
| 1778052655 | 2.78° C | 5% | 1016 hPa | 0 mm | 0 m/s | - | - |
| 1778052253 | 2.78° C | 4% | 1016.1 hPa | 0 mm | 0 m/s | - | - |
| 1778051851 | 2.78° C | 3% | 1015.9 hPa | 0 mm | 0 m/s | - | - |
| 1778051449 | 2.78° C | 3% | 1015.8 hPa | 0 mm | 0 m/s | - | - |
| 1778051046 | 2.78° C | 3% | 1015.8 hPa | 0 mm | 0 m/s | - | - |
| 1778050644 | 2.78° C | 3% | 1015.7 hPa | 0 mm | 0 m/s | - | - |
| 1778050241 | 2.78° C | 2% | 1015.6 hPa | 0 mm | 0 m/s | - | - |
| 1778049840 | 2.78° C | 2% | 1015.8 hPa | 0 mm | 0 m/s | - | - |
| 1778049437 | 3.33° C | 2% | 1015.7 hPa | 0 mm | 0 m/s | - | - |
| 1778049035 | 3.33° C | 2% | 1015.6 hPa | 0 mm | 0 m/s | - | - |
| 1778048633 | 3.33° C | 1% | 1015.6 hPa | 0 mm | 0 m/s | - | - |
| 1778048231 | 3.33° C | 100% | 1015.7 hPa | 0 mm | 0 m/s | - | - |
| 1778047828 | 3.33° C | 100% | 1015.8 hPa | 0 mm | 0 m/s | - | - |
| 1778047426 | 3.89° C | 100% | 1015.8 hPa | 0 mm | 0 m/s | - | - |
| 1778047024 | 3.89° C | 100% | 1015.6 hPa | 0 mm | 0 m/s | - | - |
| 1778046622 | 3.89° C | 85% | 1015.6 hPa | 0 mm | 0 m/s | - | - |
| 1778046219 | 3.89° C | 84% | 1015.6 hPa | 0 mm | 0 m/s | - | - |
* Rain since midnight (hover to see other rain measurements)
** Current wind speed in m/s (hover to see current wind gust speed)